When you browse on this site, cookies collect data to enhance your experience and personalize the content and advertising you see.
Visit our Privacy Policy to learn more. By continuing to use the site, you agree to this use of cookies and data.
  • In Hungary
  • List of Countries
  • For 7 days
  • Water Temperature
  • Weather Map
  • News
  • Weather Widgets
  • user-avatar
    Login

    Hourly Weather Pogorelka

    Today, 24 August, Saturday

    Time Temperature Precipitation Wind Pressure Humidity
    00:00 +17°C° 0 mm 5 mps 754 mmHg 75%
    01:00 +17°C° 0 mm 5 mps 753 mmHg 75%
    02:00 +17°C° 0 mm 4 mps 753 mmHg 74%
    03:00 +16°C° 0.1 mm 5 mps 753 mmHg 77%
    04:00 +15°C° 0.1 mm 5 mps 753 mmHg 79%
    05:00 +15°C° 0.1 mm 5 mps 753 mmHg 82%
    06:00 +16°C° 0.1 mm 5 mps 753 mmHg 81%
    07:00 +16°C° 0.1 mm 5 mps 753 mmHg 81%
    08:00 +17°C° 0 mm 5 mps 753 mmHg 79%
    09:00 +19°C° 0.2 mm 5 mps 753 mmHg 75%
    10:00 +19°C° 0.2 mm 5 mps 753 mmHg 70%
    11:00 +20°C° 0.2 mm 4 mps 754 mmHg 66%
    12:00 +21°C° 0 mm 4 mps 754 mmHg 61%
    13:00 +21°C° 0 mm 4 mps 754 mmHg 56%
    14:00 +22°C° 0 mm 4 mps 754 mmHg 50%
    15:00 +22°C° 0 mm 4 mps 755 mmHg 53%
    16:00 +21°C° 0 mm 3 mps 755 mmHg 56%
    17:00 +21°C° 0 mm 3 mps 755 mmHg 58%
    18:00 +19°C° 0 mm 2 mps 755 mmHg 63%
    19:00 +17°C° 0 mm 2 mps 756 mmHg 67%
    20:00 +15°C° 0 mm 2 mps 756 mmHg 72%
    21:00 +14°C° 0 mm 2 mps 756 mmHg 77%
    22:00 +13°C° 0 mm 2 mps 756 mmHg 82%
    23:00 +12°C° 0 mm 1 mps 757 mmHg 87%

    Tomorrow, 25 August, Sunday

    Time Temperature Precipitation Wind Pressure Humidity
    00:00 +12°C° 0 mm 1 mps 757 mmHg 89%
    01:00 +11°C° 0 mm 1 mps 757 mmHg 91%
    02:00 +11°C° 0 mm 1 mps 758 mmHg 93%
    03:00 +11°C° 0 mm 1 mps 758 mmHg 94%
    04:00 +11°C° 0 mm 1 mps 758 mmHg 94%
    05:00 +11°C° 0 mm 1 mps 758 mmHg 95%
    06:00 +13°C° 0 mm 1 mps 758 mmHg 88%
    07:00 +15°C° 0 mm 1 mps 758 mmHg 81%
    08:00 +16°C° 0 mm 1 mps 759 mmHg 74%
    09:00 +19°C° 0 mm 1 mps 759 mmHg 67%
    10:00 +19°C° 0 mm 0 mps 759 mmHg 61%
    11:00 +20°C° 0 mm 0 mps 759 mmHg 55%
    12:00 +22°C° 0 mm 1 mps 759 mmHg 53%
    13:00 +23°C° 0 mm 1 mps 759 mmHg 51%
    14:00 +23°C° 0 mm 1 mps 758 mmHg 50%
    15:00 +22°C° 0 mm 1 mps 758 mmHg 52%
    16:00 +22°C° 0 mm 1 mps 758 mmHg 55%
    17:00 +21°C° 0 mm 1 mps 758 mmHg 57%
    18:00 +19°C° 0 mm 1 mps 758 mmHg 63%
    19:00 +16°C° 0 mm 1 mps 758 mmHg 69%
    20:00 +13°C° 0 mm 0 mps 758 mmHg 75%
    21:00 +14°C° 0 mm 1 mps 758 mmHg 76%
    22:00 +14°C° 0 mm 1 mps 758 mmHg 78%
    23:00 +13°C° 0 mm 1 mps 758 mmHg 79%

    Day after tomorrow, 26 August, Monday

    Time Temperature Precipitation Wind Pressure Humidity
    00:00 +13°C° 0 mm 2 mps 758 mmHg 82%
    01:00 +13°C° 0 mm 2 mps 758 mmHg 85%
    02:00 +12°C° 0 mm 2 mps 758 mmHg 88%
    03:00 +12°C° 0 mm 2 mps 757 mmHg 87%
    04:00 +12°C° 0 mm 2 mps 757 mmHg 87%
    05:00 +12°C° 0 mm 2 mps 757 mmHg 86%
    06:00 +13°C° 0 mm 2 mps 757 mmHg 81%
    07:00 +15°C° 0 mm 2 mps 757 mmHg 75%
    08:00 +17°C° 0 mm 2 mps 757 mmHg 69%
    09:00 +19°C° 0 mm 2 mps 756 mmHg 65%
    10:00 +20°C° 0 mm 3 mps 756 mmHg 62%
    11:00 +22°C° 0 mm 3 mps 756 mmHg 59%
    12:00 +24°C° 0 mm 3 mps 756 mmHg 57%
    13:00 +25°C° 0 mm 3 mps 755 mmHg 56%
    14:00 +25°C° 0 mm 3 mps 755 mmHg 54%
    15:00 +25°C° 0.1 mm 3 mps 755 mmHg 59%
    16:00 +24°C° 0.1 mm 3 mps 754 mmHg 64%
    17:00 +24°C° 0.1 mm 2 mps 754 mmHg 69%
    18:00 +21°C° 0 mm 2 mps 754 mmHg 73%
    19:00 +20°C° 0 mm 2 mps 754 mmHg 76%
    20:00 +18°C° 0 mm 2 mps 754 mmHg 80%
    21:00 +17°C° 0 mm 2 mps 754 mmHg 83%
    22:00 +16°C° 0 mm 2 mps 754 mmHg 85%
    23:00 +16°C° 0 mm 2 mps 754 mmHg 88%

    27 August, Tuesday

    Time Temperature Precipitation Wind Pressure Humidity
    00:00 +15°C° 0 mm 2 mps 754 mmHg 91%
    01:00 +15°C° 0 mm 2 mps 754 mmHg 94%
    02:00 +15°C° 0 mm 2 mps 754 mmHg 96%
    03:00 +14°C° 0 mm 2 mps 754 mmHg 97%
    04:00 +14°C° 0 mm 2 mps 754 mmHg 97%
    05:00 +14°C° 0 mm 2 mps 754 mmHg 97%
    06:00 +15°C° 0 mm 2 mps 755 mmHg 91%
    07:00 +16°C° 0 mm 2 mps 755 mmHg 85%
    08:00 +17°C° 0 mm 2 mps 755 mmHg 78%
    09:00 +18°C° 0 mm 2 mps 755 mmHg 69%
    10:00 +19°C° 0 mm 3 mps 755 mmHg 60%
    11:00 +21°C° 0 mm 3 mps 756 mmHg 52%
    12:00 +21°C° 0 mm 3 mps 756 mmHg 51%
    13:00 +22°C° 0 mm 3 mps 756 mmHg 50%
    14:00 +22°C° 0 mm 3 mps 756 mmHg 49%
    15:00 +22°C° 0 mm 3 mps 756 mmHg 51%
    16:00 +21°C° 0 mm 3 mps 756 mmHg 53%
    17:00 +21°C° 0 mm 3 mps 756 mmHg 56%
    18:00 +19°C° 0 mm 2 mps 756 mmHg 64%
    19:00 +17°C° 0 mm 2 mps 756 mmHg 72%
    20:00 +15°C° 0 mm 2 mps 756 mmHg 79%
    21:00 +15°C° 0 mm 2 mps 757 mmHg 83%
    22:00 +14°C° 0 mm 2 mps 757 mmHg 86%
    23:00 +13°C° 0 mm 2 mps 757 mmHg 89%

    28 August, Wednesday

    Time Temperature Precipitation Wind Pressure Humidity
    00:00 +13°C° 0 mm 2 mps 757 mmHg 88%
    01:00 +12°C° 0 mm 2 mps 758 mmHg 86%
    02:00 +10°C° 0 mm 2 mps 758 mmHg 84%
    03:00 +10°C° 0 mm 2 mps 758 mmHg 82%
    04:00 +9°C° 0 mm 2 mps 758 mmHg 80%
    05:00 +9°C° 0 mm 2 mps 758 mmHg 78%
    06:00 +10°C° 0 mm 2 mps 758 mmHg 72%
    07:00 +13°C° 0 mm 2 mps 759 mmHg 67%
    08:00 +14°C° 0 mm 2 mps 759 mmHg 62%
    09:00 +16°C° 0 mm 2 mps 759 mmHg 57%
    10:00 +17°C° 0 mm 2 mps 759 mmHg 51%
    11:00 +19°C° 0 mm 2 mps 759 mmHg 46%
    12:00 +19°C° 0 mm 2 mps 759 mmHg 45%
    13:00 +20°C° 0 mm 2 mps 759 mmHg 44%
    14:00 +20°C° 0 mm 2 mps 758 mmHg 43%
    15:00 +20°C° 0 mm 2 mps 758 mmHg 45%
    16:00 +20°C° 0 mm 1 mps 758 mmHg 48%
    17:00 +20°C° 0 mm 1 mps 758 mmHg 50%
    18:00 +18°C° 0 mm 1 mps 758 mmHg 57%
    19:00 +15°C° 0 mm 1 mps 758 mmHg 63%
    20:00 +13°C° 0 mm 1 mps 758 mmHg 70%
    21:00 +12°C° 0 mm 1 mps 758 mmHg 72%
    22:00 +12°C° 0 mm 1 mps 758 mmHg 74%
    23:00 +11°C° 0 mm 1 mps 759 mmHg 76%

    29 August, Thursday

    Time Temperature Precipitation Wind Pressure Humidity
    00:00 +11°C° 0 mm 1 mps 758 mmHg 78%
    01:00 +10°C° 0 mm 1 mps 758 mmHg 79%
    02:00 +10°C° 0 mm 1 mps 758 mmHg 80%
    03:00 +9°C° 0 mm 1 mps 758 mmHg 80%
    04:00 +9°C° 0 mm 1 mps 759 mmHg 79%
    05:00 +9°C° 0 mm 1 mps 759 mmHg 79%
    06:00 +11°C° 0 mm 1 mps 759 mmHg 72%
    07:00 +12°C° 0 mm 1 mps 759 mmHg 64%
    08:00 +14°C° 0 mm 1 mps 759 mmHg 57%
    09:00 +16°C° 0 mm 1 mps 759 mmHg 53%
    10:00 +19°C° 0 mm 1 mps 759 mmHg 49%
    11:00 +19°C° 0 mm 2 mps 759 mmHg 45%
    12:00 +20°C° 0 mm 2 mps 758 mmHg 44%
    13:00 +21°C° 0 mm 2 mps 758 mmHg 44%
    14:00 +21°C° 0 mm 2 mps 758 mmHg 44%
    15:00 +21°C° 0 mm 2 mps 758 mmHg 47%
    16:00 +21°C° 0 mm 2 mps 758 mmHg 50%
    17:00 +22°C° 0 mm 1 mps 757 mmHg 53%
    18:00 +19°C° 0 mm 1 mps 757 mmHg 60%
    19:00 +16°C° 0 mm 1 mps 757 mmHg 67%
    20:00 +14°C° 0 mm 1 mps 757 mmHg 75%
    21:00 +14°C° 0 mm 1 mps 757 mmHg 76%
    22:00 +13°C° 0 mm 1 mps 757 mmHg 78%
    23:00 +13°C° 0 mm 1 mps 757 mmHg 80%
    Show more